User: anonymous   Login
Location: Unspecified
(0.0000°N, 0.0000°E)
Time: 11:31:21
(UTC+00:00)
Language:

CORVUS BC2 - Orbit

View from above orbital plane
View from above orbital plane
View from above satellite
View from above satellite

Ground track
Ground track

The orbit data is extracted from the following two-line orbital elements,

1 42846U 17042X   24110.51867586  .00007665  00000-0  66917-3 0  9998
2 42846  97.3748 298.9134 0007391 252.2316 107.8100 14.97053461368667
Epoch (UTC): 19 April 2024 12:26:53
Eccentricity: 0.0007391
inclination: 97.3748°
perigee height: 571 km
apogee height: 581 km
right ascension of ascending node: 298.9134°
argument of perigee: 252.2316°
revolutions per day: 14.97053461
mean anomaly at epoch: 107.8100°
orbit number at epoch: 36866

The dashed part of the orbit path shows where the satellite is in the earth's shadow,  

DLR